STARLINK-1527 (46048 NORAD) Tracking and Keplerian Element Data

This shows tracking and keplerian element data for the satellite.

Feedback or suggestion? Click here.




ElementValue
Catalog46048
NameSTARLINK-1527
Epoch Orbit1903
Epoch Day336.8054996
Epoch Year2020
RAAN113.2379
Inclination53.038
Eccentricity0.0001657
Argument of Perigee4.0301
Mean Anonmoly356.0701
Mean Motion15.0686924
Decay Rate0.00065432
L11 46048U 20055X 20336.80549960 .00065432 00000-0 43160-2 0 9995
L22 46048 53.0380 113.2379 0001657 4.0301 356.0701 15.06869240 19032

Live tracking and technical data element details for STARLINK-1527 (NORAD 46048). STARLINK-1527 can be tracked NOW for your location showing map with azimuth and elevation plus other details from your city location.

Track the satellite on the map from your city or location and see movement details for azimuth, elevation, latitude, longitude, range, height, and movement on the map or in text.







IsCatalogInMostPopularTable: catalog: 46048, numindb: 25
Update: records affected: 1



GetName: 46048 STARLINK-1527

Hit Count: updated at: Thu, 03 Dec 2020 02:49:14 GMT